When you browse on this site, cookies collect data to enhance your experience and personalize the content and advertising you see.
Visit our Privacy Policy to learn more. By continuing to use the site, you agree to this use of cookies and data.
  • In Hungary
  • List of Countries
  • For 7 days
  • Water Temperature
  • Satellite Maps
  • Weather Map
  • News
  • Weather Widgets
  • user-avatar
    Login

    Hourly Weather Pechenegi

    Today, 21 November, Wednesday

    Time Temperature Precipitation Wind Pressure Humidity
    00:00 -3°C° 0 mm 2 mps 760 mmHg 93%
    01:00 -4°C° 0 mm 2 mps 760 mmHg 93%
    02:00 -4°C° 0 mm 2 mps 760 mmHg 93%
    03:00 -4°C° 0 mm 2 mps 760 mmHg 93%
    04:00 -4°C° 0 mm 2 mps 760 mmHg 93%
    05:00 -4°C° 0 mm 2 mps 760 mmHg 93%
    06:00 -4°C° 0 mm 2 mps 760 mmHg 92%
    07:00 -2°C° 0 mm 1 mps 760 mmHg 91%
    08:00 -1°C° 0 mm 1 mps 760 mmHg 90%
    09:00 -2°C° 0 mm 2 mps 760 mmHg 82%
    10:00 -1°C° 0 mm 2 mps 760 mmHg 75%
    11:00 +1°C° 0 mm 2 mps 759 mmHg 68%
    12:00 +1°C° 0 mm 2 mps 759 mmHg 67%
    13:00 0°C° 0 mm 3 mps 759 mmHg 66%
    14:00 0°C° 0 mm 3 mps 758 mmHg 64%
    15:00 -1°C° 0 mm 3 mps 758 mmHg 69%
    16:00 -2°C° 0 mm 2 mps 758 mmHg 75%
    17:00 -3°C° 0 mm 2 mps 758 mmHg 80%
    18:00 -3°C° 0 mm 2 mps 758 mmHg 81%
    19:00 -3°C° 0 mm 2 mps 758 mmHg 81%
    20:00 -3°C° 0 mm 2 mps 758 mmHg 82%
    21:00 -4°C° 0 mm 2 mps 758 mmHg 82%
    22:00 -4°C° 0 mm 2 mps 758 mmHg 81%
    23:00 -4°C° 0 mm 2 mps 758 mmHg 81%

    Tomorrow, 22 November, Thursday

    Time Temperature Precipitation Wind Pressure Humidity
    00:00 -4°C° 0 mm 2 mps 758 mmHg 81%
    01:00 -4°C° 0 mm 2 mps 758 mmHg 82%
    02:00 -4°C° 0 mm 2 mps 758 mmHg 82%
    03:00 -5°C° 0 mm 2 mps 757 mmHg 84%
    04:00 -5°C° 0 mm 2 mps 757 mmHg 86%
    05:00 -5°C° 0 mm 2 mps 757 mmHg 87%
    06:00 -5°C° 0 mm 2 mps 757 mmHg 87%
    07:00 -5°C° 0 mm 2 mps 757 mmHg 87%
    08:00 -5°C° 0 mm 2 mps 757 mmHg 87%
    09:00 -3°C° 0 mm 2 mps 757 mmHg 80%
    10:00 -2°C° 0 mm 3 mps 757 mmHg 74%
    11:00 -1°C° 0 mm 3 mps 757 mmHg 67%
    12:00 -1°C° 0 mm 3 mps 757 mmHg 67%
    13:00 -1°C° 0 mm 3 mps 756 mmHg 66%
    14:00 -2°C° 0 mm 4 mps 756 mmHg 65%
    15:00 -3°C° 0 mm 4 mps 756 mmHg 70%
    16:00 -4°C° 0 mm 3 mps 756 mmHg 75%
    17:00 -5°C° 0 mm 3 mps 756 mmHg 80%
    18:00 -5°C° 0 mm 3 mps 756 mmHg 81%
    19:00 -5°C° 0 mm 3 mps 756 mmHg 82%
    20:00 -5°C° 0 mm 3 mps 756 mmHg 83%
    21:00 -5°C° 0 mm 3 mps 756 mmHg 83%
    22:00 -5°C° 0 mm 4 mps 756 mmHg 83%
    23:00 -5°C° 0 mm 4 mps 756 mmHg 83%

    Day after tomorrow, 23 November, Friday

    Time Temperature Precipitation Wind Pressure Humidity
    00:00 -5°C° 0 mm 4 mps 756 mmHg 84%
    01:00 -5°C° 0 mm 4 mps 756 mmHg 85%
    02:00 -6°C° 0 mm 5 mps 756 mmHg 86%
    03:00 -6°C° 0 mm 5 mps 756 mmHg 85%
    04:00 -6°C° 0 mm 5 mps 756 mmHg 84%
    05:00 -6°C° 0 mm 5 mps 757 mmHg 83%
    06:00 -5°C° 0 mm 4 mps 757 mmHg 83%
    07:00 -5°C° 0 mm 4 mps 758 mmHg 84%
    08:00 -5°C° 0 mm 4 mps 758 mmHg 85%
    09:00 -3°C° 0 mm 4 mps 759 mmHg 79%
    10:00 -2°C° 0 mm 4 mps 759 mmHg 73%
    11:00 -1°C° 0 mm 4 mps 760 mmHg 68%
    12:00 -1°C° 0 mm 4 mps 760 mmHg 65%
    13:00 0°C° 0 mm 3 mps 761 mmHg 63%
    14:00 +1°C° 0 mm 3 mps 761 mmHg 61%
    15:00 -1°C° 0 mm 3 mps 761 mmHg 65%
    16:00 -2°C° 0 mm 2 mps 762 mmHg 70%
    17:00 -3°C° 0 mm 2 mps 762 mmHg 75%
    18:00 -1°C° 0 mm 1 mps 763 mmHg 76%
    19:00 -1°C° 0 mm 1 mps 763 mmHg 76%
    20:00 -2°C° 0 mm 1 mps 763 mmHg 77%
    21:00 -2°C° 0 mm 1 mps 764 mmHg 77%
    22:00 -2°C° 0 mm 1 mps 764 mmHg 77%
    23:00 -3°C° 0 mm 0 mps 764 mmHg 78%

    24 November, Saturday

    Time Temperature Precipitation Wind Pressure Humidity
    00:00 -2°C° 0 mm 1 mps 764 mmHg 79%
    01:00 -2°C° 0 mm 1 mps 764 mmHg 81%
    02:00 -5°C° 0 mm 2 mps 764 mmHg 82%
    03:00 -5°C° 0 mm 2 mps 764 mmHg 84%
    04:00 -5°C° 0 mm 2 mps 764 mmHg 86%
    05:00 -5°C° 0 mm 2 mps 764 mmHg 88%
    06:00 -5°C° 0 mm 2 mps 764 mmHg 87%
    07:00 -5°C° 0 mm 2 mps 764 mmHg 87%
    08:00 -5°C° 0 mm 2 mps 764 mmHg 87%
    09:00 -5°C° 0 mm 3 mps 763 mmHg 80%
    10:00 -2°C° 0 mm 3 mps 763 mmHg 74%
    11:00 -2°C° 0 mm 4 mps 763 mmHg 67%
    12:00 -2°C° 0 mm 4 mps 762 mmHg 66%
    13:00 -2°C° 0 mm 4 mps 762 mmHg 65%
    14:00 -1°C° 0 mm 4 mps 762 mmHg 64%
    15:00 -2°C° 0 mm 4 mps 761 mmHg 70%
    16:00 -2°C° 0 mm 3 mps 761 mmHg 77%
    17:00 -5°C° 0 mm 3 mps 761 mmHg 84%
    18:00 -5°C° 0 mm 3 mps 761 mmHg 85%
    19:00 -5°C° 0 mm 3 mps 760 mmHg 87%
    20:00 -5°C° 0 mm 3 mps 760 mmHg 89%
    21:00 -5°C° 0 mm 3 mps 760 mmHg 90%
    22:00 -5°C° 0 mm 3 mps 760 mmHg 91%
    23:00 -5°C° 0 mm 3 mps 760 mmHg 92%

    25 November, Sunday

    Time Temperature Precipitation Wind Pressure Humidity
    00:00 -5°C° 0 mm 3 mps 759 mmHg 92%
    01:00 -5°C° 0 mm 3 mps 759 mmHg 92%
    02:00 -6°C° 0 mm 3 mps 759 mmHg 92%
    03:00 -6°C° 0 mm 3 mps 758 mmHg 92%
    04:00 -6°C° 0 mm 3 mps 758 mmHg 92%
    05:00 -6°C° 0 mm 3 mps 758 mmHg 93%
    06:00 -6°C° 0 mm 3 mps 757 mmHg 91%
    07:00 -6°C° 0 mm 3 mps 757 mmHg 90%
    08:00 -6°C° 0 mm 3 mps 757 mmHg 88%
    09:00 -4°C° 0 mm 3 mps 757 mmHg 80%
    10:00 -3°C° 0 mm 4 mps 756 mmHg 73%
    11:00 -2°C° 0 mm 4 mps 756 mmHg 65%
    12:00 -1°C° 0 mm 4 mps 755 mmHg 66%
    13:00 -1°C° 0 mm 4 mps 755 mmHg 66%
    14:00 -1°C° 0 mm 4 mps 754 mmHg 67%
    15:00 -1°C° 0 mm 3 mps 754 mmHg 75%
    16:00 -2°C° 0 mm 3 mps 754 mmHg 83%
    17:00 -4°C° 0 mm 3 mps 754 mmHg 90%
    18:00 -2°C° 0 mm 3 mps 754 mmHg 92%
    19:00 -2°C° 0 mm 3 mps 753 mmHg 93%
    20:00 -2°C° 0 mm 3 mps 753 mmHg 94%
    21:00 -2°C° 0 mm 3 mps 753 mmHg 94%
    22:00 -1°C° 0 mm 3 mps 753 mmHg 94%
    23:00 -1°C° 0 mm 3 mps 752 mmHg 93%

    26 November, Monday

    Time Temperature Precipitation Wind Pressure Humidity
    00:00 -2°C° 0 mm 4 mps 752 mmHg 93%
    01:00 -2°C° 0 mm 4 mps 751 mmHg 93%
    02:00 -2°C° 0 mm 4 mps 751 mmHg 93%
    03:00 -1°C° 0 mm 4 mps 751 mmHg 94%
    04:00 -1°C° 0 mm 4 mps 750 mmHg 94%
    05:00 -1°C° 0 mm 5 mps 750 mmHg 94%
    06:00 -1°C° 0.1 mm 5 mps 749 mmHg 94%
    07:00 -1°C° 0.1 mm 5 mps 749 mmHg 93%
    08:00 -1°C° 0.1 mm 6 mps 749 mmHg 92%
    09:00 -1°C° 0.5 mm 6 mps 748 mmHg 91%
    10:00 +1°C° 0.5 mm 6 mps 748 mmHg 90%
    11:00 +1°C° 0.5 mm 6 mps 748 mmHg 90%
    12:00 +1°C° 0.3 mm 6 mps 748 mmHg 91%
    13:00 +1°C° 0.3 mm 5 mps 747 mmHg 92%
    14:00 +1°C° 0.3 mm 5 mps 747 mmHg 93%
    15:00 +1°C° 0 mm 4 mps 747 mmHg 94%
    16:00 +1°C° 0 mm 4 mps 747 mmHg 94%
    17:00 +1°C° 0 mm 3 mps 747 mmHg 95%
    18:00 +1°C° 0 mm 3 mps 747 mmHg 95%
    19:00 +1°C° 0 mm 3 mps 748 mmHg 95%
    20:00 +1°C° 0 mm 3 mps 748 mmHg 94%
    21:00 +1°C° 0 mm 3 mps 748 mmHg 93%
    22:00 +1°C° 0 mm 3 mps 748 mmHg 92%
    23:00 +1°C° 0 mm 3 mps 748 mmHg 91%
    Show more